This is the latest recevied weather packets stored in our database for station/object KD0RII. If no packets are shown the sender has not sent any weather packets the latest 10 day(s).
| Time | Temp. | Humidity | Pressure | Rain* | Wind** | Luminosity | Snow |
|---|---|---|---|---|---|---|---|
| 1777603357 | 10° C | 76% | 1019.7 hPa | 0 mm | - | 0 W/m² | - |
| 1777603052 | 10° C | 75% | 1019.7 hPa | 0 mm | - | 0 W/m² | - |
| 1777602747 | 10.56° C | 74% | 1019.5 hPa | 0 mm | - | 0 W/m² | - |
| 1777602443 | 11.11° C | 72% | 1019.7 hPa | 0 mm | - | 0 W/m² | - |
| 1777602140 | 11.11° C | 71% | 1019.3 hPa | 0 mm | - | 0 W/m² | - |
| 1777601834 | 11.67° C | 71% | 1019.1 hPa | 0 mm | - | 0 W/m² | - |
| 1777601530 | 12.22° C | 70% | 1019.2 hPa | 0 mm | - | 0 W/m² | - |
| 1777601225 | 12.22° C | 69% | 1019.2 hPa | 0 mm | - | 0 W/m² | - |
| 1777600924 | 12.22° C | 68% | 1019.1 hPa | 0 mm | - | 0 W/m² | - |
| 1777600618 | 12.78° C | 68% | 1019 hPa | 0 mm | - | 0 W/m² | - |
| 1777600314 | 12.78° C | 68% | 1018.9 hPa | 0 mm | - | 0 W/m² | - |
| 1777600005 | 12.78° C | 66% | 1018.8 hPa | 0 mm | - | 0 W/m² | - |
| 1777599701 | 13.33° C | 65% | 1018.9 hPa | 0 mm | - | 0 W/m² | - |
| 1777599396 | 13.33° C | 64% | 1018.7 hPa | 0 mm | - | 0 W/m² | - |
| 1777599094 | 13.89° C | 63% | 1018.7 hPa | 0 mm | - | 0 W/m² | - |
| 1777598792 | 13.89° C | 62% | 1018.6 hPa | 0 mm | - | 0 W/m² | - |
| 1777598486 | 14.44° C | 63% | 1018.7 hPa | 0 mm | - | 1 W/m² | - |
| 1777598186 | 14.44° C | 61% | 1018.4 hPa | 0 mm | - | 2 W/m² | - |
| 1777597880 | 15° C | 61% | 1018.3 hPa | 0 mm | - | 3 W/m² | - |
| 1777597575 | 15° C | 61% | 1018.3 hPa | 0 mm | - | 5 W/m² | - |
| 1777597270 | 15° C | 61% | 1018.3 hPa | 0 mm | - | 7 W/m² | - |
| 1777596965 | 15° C | 62% | 1018.3 hPa | 0 mm | - | 11 W/m² | - |
| 1777596663 | 15.56° C | 61% | 1018.3 hPa | 0 mm | - | 12 W/m² | - |
| 1777596359 | 15.56° C | 60% | 1018.2 hPa | 0 mm | - | 15 W/m² | - |
| 1777596057 | 15.56° C | 60% | 1018 hPa | 0 mm | - | 23 W/m² | - |
* Rain latest hour (hover to see other rain measurements)
** Current wind speed in m/s (hover to see current wind gust speed)